Weather History for Eureka Airport, NV

Change the Weather History Date:

Saturday, December 29, 2012

  Actual Average Record
Temperature  
Mean Temperature 18 °F -  
Max Temperature 28 °F - - ()
Min Temperature 8 °F - - ()
Degree Days  
Heating Degree Days 47    
Moisture  
Dew Point 11 °F    
Average Humidity 79    
Maximum Humidity 93    
Minimum Humidity 59    
Precipitation  
Precipitation 0.00 in - - ()
Sea Level Pressure  
Sea Level Pressure 30.00 in    
Wind  
Wind Speed 1 mph (SSE)    
Max Wind Speed 7 mph    
Max Gust Speed -    
Visibility 10 miles    
Events      
T = Trace of Precipitation, MM = Missing Value Source: NWS Daily Summary

Daily Weather History Graph

Daily Weather History Graph

Search for Another Location

Airport:

Trip Planner

Search our weather history database for the weather conditions in past years. The results will help you decide how hot, cold, wet, or windy it might be!

Date:

Astronomy

Dec. 29, 2012 Rise Set
Actual Time 7:04 AM PST 4:28 PM PST
Civil Twilight 6:34 AM PST 4:58 PM PST
Nautical Twilight 6:00 AM PST 5:32 PM PST
Astronomical Twilight 5:27 AM PST 6:05 PM PST
Moon 6:05 PM PST (12/29) 7:40 AM PST (12/29)
Length of Visible Light 10h 24m
Length of Day
9h 24m
Full, 98% of the Moon is Illuminated
Dec 29
Full
Jan 4
Last Quarter
Jan 11
New
Jan 18
First Quarter
Jan 26
Full

Hourly Weather History & Observations

Time (PST) Temp. Windchill Dew Point Humidity Pressure Visibility Wind Dir Wind Speed Gust Speed Precip Events Conditions
12:00 AM 10.4 °F - 6.8 °F 85% 30.08 in 10.0 mi Calm Calm - N/A   Overcast
12:20 AM 10.4 °F - 6.8 °F 85% 30.08 in 10.0 mi Calm Calm - N/A   Overcast
12:40 AM 10.4 °F - 6.8 °F 85% 30.08 in 10.0 mi Calm Calm - N/A   Overcast
1:00 AM 10.4 °F - 6.8 °F 85% 30.07 in 10.0 mi Calm Calm - N/A   Overcast
1:20 AM 12.2 °F - 8.6 °F 85% 30.07 in 10.0 mi Calm Calm - N/A   Overcast
1:40 AM 14.0 °F - 8.6 °F 79% 30.08 in 10.0 mi Calm Calm - N/A   Mostly Cloudy
2:00 AM 14.0 °F 8.2 °F 8.6 °F 79% 30.07 in 10.0 mi East 3.5 mph - N/A   Overcast
2:20 AM 14.0 °F 8.2 °F 8.6 °F 79% 30.07 in 10.0 mi NW 3.5 mph - N/A   Mostly Cloudy
2:40 AM 14.0 °F - 8.6 °F 79% 30.06 in 10.0 mi Calm Calm - N/A   Overcast
3:00 AM 14.0 °F - 8.6 °F 79% 30.06 in 10.0 mi Calm Calm - N/A   Overcast
3:20 AM 12.2 °F - 8.6 °F 85% 30.06 in 10.0 mi Calm Calm - N/A   Overcast
3:40 AM 12.2 °F - 8.6 °F 85% 30.06 in 10.0 mi Calm Calm - N/A   Overcast
4:00 AM 10.4 °F - 6.8 °F 85% 30.06 in 10.0 mi Calm Calm - N/A   Overcast
4:20 AM 10.4 °F - 6.8 °F 85% 30.05 in 10.0 mi Calm Calm - N/A   Overcast
4:40 AM 8.6 °F - 6.8 °F 92% 30.05 in 10.0 mi Calm Calm - N/A   Overcast
5:20 AM 8.6 °F - 5.0 °F 85% 30.05 in 10.0 mi Calm Calm - N/A   Overcast
5:40 AM 8.6 °F - 6.8 °F 92% 30.05 in 10.0 mi Calm Calm - N/A   Overcast
6:00 AM 10.4 °F - 6.8 °F 85% 30.05 in 10.0 mi Calm Calm - N/A   Overcast
6:20 AM 10.4 °F - 6.8 °F 85% 30.05 in 10.0 mi Calm Calm - N/A   Overcast
6:40 AM 10.4 °F - 6.8 °F 85% 30.04 in 10.0 mi Calm Calm - N/A   Mostly Cloudy
7:00 AM 10.4 °F - 6.8 °F 85% 30.05 in 10.0 mi Calm Calm - N/A   Overcast
7:20 AM 10.4 °F - 6.8 °F 85% 30.04 in 10.0 mi Calm Calm - N/A   Overcast
7:40 AM 10.4 °F - 6.8 °F 85% 30.04 in 10.0 mi Calm Calm - N/A   Overcast
8:00 AM 8.6 °F - 6.8 °F 92% 30.04 in 10.0 mi Calm Calm - N/A   Overcast
8:20 AM 10.4 °F - 6.8 °F 85% 30.05 in 10.0 mi Calm Calm - N/A   Overcast
8:40 AM 14.0 °F - 8.6 °F 79% 30.05 in 10.0 mi Calm Calm - N/A   Overcast
9:00 AM 14.0 °F 8.2 °F 8.6 °F 79% 30.05 in 10.0 mi East 3.5 mph - N/A   Overcast
9:20 AM 15.8 °F 10.2 °F 8.6 °F 73% 30.05 in 10.0 mi East 3.5 mph - N/A   Overcast
9:40 AM 15.8 °F - 10.4 °F 79% 30.06 in 10.0 mi Calm Calm - N/A   Overcast
10:00 AM 17.6 °F - 10.4 °F 73% 30.05 in 10.0 mi Calm Calm - N/A   Overcast
10:20 AM 19.4 °F - 12.2 °F 74% 30.05 in 10.0 mi Calm Calm - N/A   Overcast
10:40 AM 21.2 °F - 12.2 °F 68% 30.04 in 10.0 mi Calm Calm - N/A   Overcast
11:00 AM 23.0 °F - 14.0 °F 68% 30.02 in 10.0 mi Calm Calm - N/A   Overcast
11:20 AM 23.0 °F 18.4 °F 14.0 °F 68% 30.01 in 10.0 mi North 3.5 mph - N/A   Overcast
11:40 AM 24.8 °F 20.5 °F 14.0 °F 64% 30.00 in 10.0 mi NE 3.5 mph - N/A   Overcast
12:00 PM 26.6 °F - 14.0 °F 59% 29.98 in 10.0 mi Calm Calm - N/A   Overcast
12:20 PM 24.8 °F 20.5 °F 14.0 °F 64% 29.97 in 10.0 mi NE 3.5 mph - N/A   Overcast
12:40 PM 24.8 °F 20.5 °F 14.0 °F 64% 29.97 in 10.0 mi ENE 3.5 mph - N/A   Mostly Cloudy
1:00 PM 26.6 °F 21.2 °F 14.0 °F 59% 29.96 in 10.0 mi ENE 4.6 mph - N/A   Scattered Clouds
1:20 PM 24.8 °F 19.1 °F 14.0 °F 64% 29.95 in 10.0 mi East 4.6 mph - N/A   Scattered Clouds
1:40 PM 24.8 °F - 14.0 °F 64% 29.95 in 10.0 mi Calm Calm - N/A   Clear
2:00 PM 26.6 °F - 14.0 °F 59% 29.94 in 10.0 mi Calm Calm - N/A   Scattered Clouds
2:20 PM 26.6 °F - 14.0 °F 59% 29.94 in 10.0 mi Calm Calm - N/A   Mostly Cloudy
2:40 PM 26.6 °F - 15.8 °F 64% 29.94 in 10.0 mi Calm Calm - N/A   Partly Cloudy
3:00 PM 28.4 °F - 15.8 °F 59% 29.94 in 10.0 mi Calm Calm - N/A   Scattered Clouds
3:20 PM 24.8 °F 19.1 °F 14.0 °F 64% 29.94 in 10.0 mi NNE 4.6 mph - N/A   Scattered Clouds
3:40 PM 23.0 °F 18.4 °F 15.8 °F 74% 29.94 in 10.0 mi North 3.5 mph - N/A   Mostly Cloudy
4:00 PM 24.8 °F - 15.8 °F 69% 29.94 in 10.0 mi Calm Calm - N/A   Overcast
4:20 PM 23.0 °F - 15.8 °F 74% 29.94 in 10.0 mi Calm Calm - N/A   Scattered Clouds
4:40 PM 21.2 °F - 15.8 °F 80% 29.94 in 10.0 mi Calm Calm - N/A   Mostly Cloudy
5:00 PM 19.4 °F - 14.0 °F 80% 29.94 in 10.0 mi Calm Calm - N/A   Overcast
5:40 PM 17.6 °F - 14.0 °F 86% 29.95 in 7.0 mi Calm Calm - N/A   Overcast
6:00 PM 17.6 °F - 14.0 °F 86% 29.96 in 5.0 mi Calm Calm - N/A   Overcast
6:20 PM 19.4 °F - 15.8 °F 86% 29.96 in 5.0 mi Calm Calm - N/A   Overcast
6:40 PM 19.4 °F - 15.8 °F 86% 29.96 in 5.0 mi Calm Calm - N/A   Overcast
7:00 PM 17.6 °F - 15.8 °F 93% 29.95 in 10.0 mi Calm Calm - N/A   Overcast
7:20 PM 17.6 °F - 14.0 °F 86% 29.95 in 10.0 mi Calm Calm - N/A   Overcast
7:40 PM 17.6 °F - 14.0 °F 86% 29.95 in 10.0 mi Calm Calm - N/A   Overcast
8:00 PM 17.6 °F 9.3 °F 14.0 °F 86% 29.95 in 8.0 mi SSW 5.8 mph - N/A   Overcast
8:20 PM 19.4 °F 14.3 °F 15.8 °F 86% 29.95 in 6.0 mi South 3.5 mph - N/A   Overcast
8:40 PM 19.4 °F - 15.8 °F 86% 29.95 in 10.0 mi Calm Calm - N/A   Overcast
9:00 PM 17.6 °F 12.3 °F 15.8 °F 93% 29.95 in 10.0 mi SW 3.5 mph - N/A   Overcast
9:20 PM 17.6 °F 10.7 °F 14.0 °F 86% 29.94 in 10.0 mi SSW 4.6 mph - N/A   Overcast
9:40 PM 17.6 °F 10.7 °F 14.0 °F 86% 29.95 in 10.0 mi SSW 4.6 mph - N/A   Overcast
10:00 PM 17.6 °F 9.3 °F 14.0 °F 86% 29.94 in 10.0 mi SSW 5.8 mph - N/A   Overcast
10:20 PM 15.8 °F 6.1 °F 14.0 °F 93% 29.94 in 10.0 mi SSW 6.9 mph - N/A   Mostly Cloudy
10:40 PM 15.8 °F 6.1 °F 14.0 °F 93% 29.94 in 10.0 mi SSW 6.9 mph - N/A   Mostly Cloudy
11:00 PM 14.0 °F 5.1 °F 10.4 °F 86% 29.94 in 10.0 mi WSW 5.8 mph - N/A   Mostly Cloudy
11:20 PM 10.4 °F 0.8 °F 8.6 °F 92% 29.94 in 10.0 mi SSW 5.8 mph - N/A   Overcast
11:40 PM 12.2 °F 4.3 °F 8.6 °F 85% 29.94 in 10.0 mi WSW 4.6 mph - N/A   Overcast